Location: Gellin
(53.4498°N, 14.3207°E)
Time: 23:31:58
(UTC+00:00)

CZ-2D R/B - Pass Details

Date: 03 March 2021
Orbit: 522 x 536 km, 97.4° (Epoch: 12 April)

Event Time Altitude Azimuth Distance (km) Brightness Sun altitude
Rises 17:15:41 0° 173° (S) 2,643 6.8 -5.4°
Reaches altitude 10° 17:17:47 10° 177° (S) 1,761 5.9 -5.7°
Maximum altitude 17:21:33 62° 258° (WSW) 596 3.9 -6.3°
Drops below altitude 10° 17:25:22 10° 341° (NNW) 1,783 6.2 -6.9°
Sets 17:27:31 0° 344° (NNW) 2,681 7.0 -7.2°
